Location: Unspecified
(22.6800°N, 112.2000°E)
Time: 04:39:28
(UTC+08:00)

S-56A Canister/Altair - Pass Details

Date: 26 July 2021
Orbit: 632 x 2500 km, 38.9° (Epoch: 27 September)

Event Time Altitude Azimuth Distance (km) Brightness Sun altitude
Rises 14:16:28 0° 214° (SSW) 5,111 11.9 66.8°
Reaches altitude 10° 14:19:36 10° 209° (SSW) 4,339 11.7 66.0°
Maximum altitude 14:31:40 53° 136° (SE) 2,745 10.9 63.3°
Drops below altitude 10° 14:46:07 10° 65° (ENE) 5,152 11.6 59.9°
Sets 14:50:11 0° 61° (ENE) 6,105 11.8 59.0°
